DWFW8688 Weather Reports


Display with metric or nautical units.
time (UTC)temp
F
wind
direction
speed
MPH
gust
MPH
rain 1hr
in
rain 24hr
in
rain mn
in
humidity
%
barometer
mb
20211209041104 46 50 3.0 5.0 0.00 0.00 0.00 71 1020.8
20211209040604 46 34 3.0 3.0 0.00 0.00 0.00 70 1020.7
20211209040104 46 61 3.0 5.0 0.00 0.00 0.00 70 1020.7
20211209035604 46 63 3.0 5.0 0.00 0.00 0.00 70 1020.7
20211209035105 46 72 3.0 5.0 0.00 0.00 0.00 70 1020.9
20211209034604 46 72 3.0 5.0 0.00 0.00 0.00 71 1020.7
20211209034104 46 70 2.0 3.0 0.00 0.00 0.00 71 1020.9
20211209033605 46 74 1.0 3.0 0.00 0.00 0.00 71 1021.3
20211209033104 45 70 2.0 3.0 0.00 0.00 0.00 71 1021.1
20211209032604 45 68 1.0 3.0 0.00 0.00 0.00 70 1021.3
20211209032104 45 42 1.0 3.0 0.00 0.00 0.00 70 1021.2
20211209031604 45 71 1.0 3.0 0.00 0.00 0.00 70 1021.3
20211209031103 45 56 1.0 3.0 0.00 0.00 0.00 69 1021.2
20211209030604 45 115 0.0 1.0 0.00 0.00 0.00 69 1021.3
20211209030104 45 116 1.0 1.0 0.00 0.00 0.00 69 1021.1
20211209025604 45 116 0.0 1.0 0.00 0.00 0.00 69 1021.2
20211209025104 45 116 0.0 1.0 0.00 0.00 0.00 69 1021.3
20211209024605 45 116 0.0 1.0 0.00 0.00 0.00 69 1021.4
20211209024104 45 116 0.0 1.0 0.00 0.00 0.00 69 1021.1
20211209023604 45 116 0.0 0.0 0.00 0.00 0.00 69 1021.5
20211209023108 45 116 0.0 1.0 0.00 0.00 0.00 69 1021.5
20211209022608 45 116 1.0 2.0 0.00 0.00 0.00 69 1021.6
20211209022107 45 127 1.0 2.0 0.00 0.00 0.00 68 1021.5
20211209021607 45 134 1.0 1.0 0.00 0.00 0.00 67 1021.6
20211209021108 45 133 1.0 1.0 0.00 0.00 0.00 67 1021.6
20211209020607 45 132 1.0 1.0 0.00 0.00 0.00 67 1021.7
20211209020108 46 131 1.0 2.0 0.00 0.00 0.00 67 1021.5
20211209015607 46 130 0.0 1.0 0.00 0.00 0.00 66 1021.7
20211209015107 46 130 1.0 2.0 0.00 0.00 0.00 66 1021.5
20211209014607 46 192 1.0 2.0 0.00 0.00 0.00 66 1021.5
20211209014107 46 199 1.0 2.0 0.00 0.00 0.00 65 1021.5
20211209013607 46 198 1.0 3.0 0.00 0.00 0.00 65 1021.8
20211209013107 46 106 0.0 2.0 0.00 0.00 0.00 65 1021.7
20211209012607 46 104 3.0 7.0 0.00 0.00 0.00 65 1021.4
20211209012107 46 91 3.0 6.0 0.00 0.00 0.00 65 1021.6
20211209011607 46 90 5.0 7.0 0.00 0.00 0.00 64 1021.5
20211209011107 46 94 5.0 7.0 0.00 0.00 0.00 64 1021.6
20211209010108 46 113 5.0 8.0 0.00 0.00 0.00 65 1021.5
20211209004107 46 103 6.0 8.0 0.00 0.00 0.00 64 1021.8
20211209003107 46 103 6.0 10.0 0.00 0.00 0.00 63 1021.8
20211209002107 46 109 6.0 9.0 0.00 0.00 0.00 63 1021.4
20211209001607 46 98 7.0 12.0 0.00 0.00 0.00 63 1021.4
20211209001107 47 98 6.0 10.0 0.00 0.00 0.00 63 1021.5
20211209000607 47 103 8.0 12.0 0.00 0.00 0.00 62 1021.6
20211209000107 46 104 7.0 10.0 0.00 0.00 0.00 63 1021.5
20211208235607 46 111 7.0 9.0 0.00 0.00 0.00 63 1021.7
20211208235108 47 103 7.0 10.0 0.00 0.00 0.00 63 1021.8
20211208234608 47 117 7.0 10.0 0.00 0.00 0.00 63 1021.6
20211208234107 47 107 5.0 8.0 0.00 0.00 0.00 63 1021.7
20211208233607 47 101 5.0 9.0 0.00 0.00 0.00 63 1021.8
20211208233107 47 105 6.0 10.0 0.00 0.00 0.00 63 1022.0
20211208232607 47 109 6.0 9.0 0.00 0.00 0.00 63 1021.8
20211208232107 47 108 5.0 9.0 0.00 0.00 0.00 63 1022.0
20211208231607 47 114 6.0 10.0 0.00 0.00 0.00 63 1021.7
20211208231107 47 108 7.0 10.0 0.00 0.00 0.00 61 1021.7
20211208230606 48 119 7.0 10.0 0.00 0.00 0.00 61 1021.7
20211208230107 48 118 7.0 12.0 0.00 0.00 0.00 61 1021.7
20211208225607 48 120 7.0 12.0 0.00 0.00 0.00 60 1021.6
20211208225107 48 118 7.0 10.0 0.00 0.00 0.00 60 1021.6
20211208224607 48 133 7.0 12.0 0.00 0.00 0.00 60 1021.9
20211208224107 48 119 6.0 12.0 0.00 0.00 0.00 60 1022.1
20211208223607 48 111 7.0 10.0 0.00 0.00 0.00 60 1021.9
20211208223107 48 113 8.0 12.0 0.00 0.00 0.00 59 1022.0
20211208222607 48 109 8.0 13.0 0.00 0.00 0.00 59 1021.8
20211208222106 48 106 9.0 13.0 0.00 0.00 0.00 59 1022.1
20211208221607 48 101 7.0 10.0 0.00 0.00 0.00 60 1022.2
20211208221107 48 115 7.0 12.0 0.00 0.00 0.00 60 1022.3
20211208220607 48 116 8.0 14.0 0.00 0.00 0.00 59 1022.1
20211208220107 48 104 9.0 14.0 0.00 0.00 0.00 59 1022.2
20211208215607 48 118 6.0 12.0 0.00 0.00 0.00 60 1022.4
20211208215107 47 107 9.0 12.0 0.00 0.00 0.00 60 1022.3
20211208214608 47 107 8.0 12.0 0.00 0.00 0.00 60 1022.2
20211208214107 47 103 7.0 15.0 0.00 0.00 0.00 60 1022.4
20211208213607 48 114 11.0 15.0 0.00 0.00 0.00 59 1022.1
20211208213107 48 115 9.0 15.0 0.00 0.00 0.00 58 1022.1
20211208212607 48 116 8.0 12.0 0.00 0.00 0.00 58 1022.1
20211208212107 48 114 9.0 13.0 0.00 0.00 0.00 58 1022.6
20211208211606 48 128 6.0 9.0 0.00 0.00 0.00 58 1023.0
20211208211106 48 125 5.0 10.0 0.00 0.00 0.00 59 1023.2
20211208210606 48 111 5.0 10.0 0.00 0.00 0.00 58 1023.0
20211208210107 48 114 6.0 12.0 0.00 0.00 0.00 58 1023.1
20211208205606 48 112 7.0 10.0 0.00 0.00 0.00 57 1022.9
20211208205107 48 105 9.0 14.0 0.00 0.00 0.00 56 1022.9
20211208204607 49 113 7.0 12.0 0.00 0.00 0.00 56 1022.9
20211208204106 48 110 7.0 13.0 0.00 0.00 0.00 56 1022.9
20211208203606 48 98 9.0 15.0 0.00 0.00 0.00 56 1023.1
20211208203106 48 110 9.0 14.0 0.00 0.00 0.00 58 1022.9
20211208202606 47 108 10.0 16.0 0.00 0.00 0.00 58 1023.1
20211208202106 47 105 9.0 15.0 0.00 0.00 0.00 59 1023.4
20211208201606 47 106 12.0 16.0 0.00 0.00 0.00 59 1023.1
20211208201107 46 96 9.0 12.0 0.00 0.00 0.00 60 1023.3
20211208200607 46 100 6.0 10.0 0.00 0.00 0.00 60 1023.5
20211208200106 46 106 9.0 14.0 0.00 0.00 0.00 60 1023.4
20211208195607 46 112 5.0 12.0 0.00 0.00 0.00 60 1023.7
20211208195106 46 115 6.0 8.0 0.00 0.00 0.00 60 1024.0
20211208194606 46 117 5.0 9.0 0.00 0.00 0.00 60 1024.3
20211208194107 46 121 7.0 14.0 0.00 0.00 0.00 60 1024.1
20211208193606 46 115 11.0 15.0 0.00 0.00 0.00 60 1024.0
20211208193106 46 108 10.0 17.0 0.00 0.00 0.00 59 1023.8
20211208192606 46 102 10.0 14.0 0.00 0.00 0.00 58 1024.1
20211208192106 47 109 8.0 18.0 0.00 0.00 0.00 58 1024.1
20211208191607 46 100 11.0 17.0 0.00 0.00 0.00 59 1024.3
20211208191106 45 102 13.0 21.0 0.00 0.00 0.00 60 1024.3
20211208190606 45 109 14.0 22.0 0.00 0.00 0.00 60 1024.6
20211208190107 45 100 10.0 17.0 0.00 0.00 0.00 61 1024.4
20211208185606 45 101 9.0 17.0 0.00 0.00 0.00 61 1024.6
20211208185106 45 110 11.0 16.0 0.00 0.00 0.00 61 1025.0
20211208184608 45 110 9.0 12.0 0.00 0.00 0.00 63 1025.0
20211208184106 45 108 9.0 14.0 0.00 0.00 0.00 63 1025.3
20211208183606 45 99 8.0 12.0 0.00 0.00 0.00 63 1025.4
20211208183106 45 113 5.0 10.0 0.00 0.00 0.00 64 1026.0
20211208182606 44 114 6.0 12.0 0.00 0.00 0.00 65 1025.6
20211208182107 43 116 7.0 13.0 0.00 0.00 0.00 66 1025.9
20211208181606 43 129 9.0 12.0 0.00 0.00 0.00 66 1026.2
20211208181107 43 123 7.0 15.0 0.00 0.00 0.00 69 1026.1
20211208180606 42 134 7.0 10.0 0.00 0.00 0.00 69 1026.5
20211208180106 42 138 8.0 12.0 0.00 0.00 0.00 69 1026.9
20211208175606 42 128 7.0 12.0 0.00 0.00 0.00 71 1026.8
20211208175106 42 122 5.0 9.0 0.00 0.00 0.00 72 1027.1
20211208174606 41 140 6.0 9.0 0.00 0.00 0.00 72 1027.0
20211208174106 42 138 5.0 9.0 0.00 0.00 0.00 72 1027.3
20211208173606 41 142 3.0 7.0 0.00 0.00 0.00 72 1027.2
20211208173106 41 153 1.0 3.0 0.00 0.00 0.00 73 1027.5
20211208172606 40 174 1.0 3.0 0.00 0.00 0.00 74 1027.7
20211208172106 40 146 2.0 3.0 0.00 0.00 0.00 74 1027.8
20211208171606 40 138 3.0 5.0 0.00 0.00 0.00 74 1027.7
20211208171106 39 165 3.0 6.0 0.00 0.00 0.00 75 1027.8
20211208170607 39 165 2.0 6.0 0.00 0.00 0.00 75 1028.0
20211208170106 39 157 2.0 5.0 0.00 0.00 0.00 75 1028.1
20211208165606 38 154 3.0 5.0 0.00 0.00 0.00 75 1028.1
20211208165106 38 138 2.0 3.0 0.00 0.00 0.00 76 1028.2
20211208164606 37 148 3.0 5.0 0.00 0.00 0.00 76 1028.0
20211208164106 37 133 2.0 6.0 0.00 0.00 0.00 77 1028.1
20211208163606 37 132 3.0 7.0 0.00 0.00 0.00 78 1028.2
20211208163106 36 147 2.0 5.0 0.00 0.00 0.00 79 1028.5
20211208162606 36 148 1.0 3.0 0.00 0.00 0.00 80 1028.5
20211208162106 35 121 1.0 2.0 0.00 0.00 0.00 81 1028.4
20211208161606 34 120 1.0 2.0 0.00 0.00 0.00 81 1028.4
20211208161105 34 145 1.0 2.0 0.00 0.00 0.00 83 1028.7
20211208160606 33 136 1.0 1.0 0.00 0.00 0.00 83 1029.0
20211208160106 33 136 1.0 2.0 0.00 0.00 0.00 84 1029.0
20211208155606 32 139 1.0 1.0 0.00 0.00 0.00 85 1029.3
20211208155105 31 138 1.0 1.0 0.00 0.00 0.00 85 1029.2
20211208154607 30 133 0.0 1.0 0.00 0.00 0.00 85 1029.2
20211208154106 30 133 0.0 1.0 0.00 0.00 0.00 84 1029.2
20211208153606 30 147 0.0 1.0 0.00 0.00 0.00 84 1029.1
20211208153106 29 159 1.0 1.0 0.00 0.00 0.00 85 1029.1
20211208152605 29 213 0.0 1.0 0.00 0.00 0.00 85 1029.2
20211208152106 28 213 1.0 1.0 0.00 0.00 0.00 85 1029.2
20211208151606 27 213 0.0 1.0 0.00 0.00 0.00 85 1029.2
20211208151106 27 213 0.0 1.0 0.00 0.00 0.00 84 1029.5
20211208150606 27 201 1.0 1.0 0.00 0.00 0.00 84 1029.5
20211208150105 27 160 0.0 1.0 0.00 0.00 0.00 84 1029.7
20211208145605 27 158 0.0 1.0 0.00 0.00 0.00 83 1029.3
20211208145105 27 151 0.0 1.0 0.00 0.00 0.00 84 1029.6
20211208144606 28 151 0.0 1.0 0.00 0.00 0.00 84 1029.4
20211208144106 28 141 0.0 1.0 0.00 0.00 0.00 84 1029.4
20211208143606 28 120 0.0 1.0 0.00 0.00 0.00 84 1029.2
20211208143106 28 120 0.0 1.0 0.00 0.00 0.00 84 1029.5
20211208142606 28 111 0.0 1.0 0.00 0.00 0.00 84 1029.4
20211208142105 28 111 0.0 1.0 0.00 0.00 0.00 84 1029.4
20211208141605 28 111 1.0 1.0 0.00 0.00 0.00 85 1029.3
20211208141105 27 121 1.0 1.0 0.00 0.00 0.00 84 1029.3
20211208140605 27 125 0.0 1.0 0.00 0.00 0.00 84 1029.3
20211208140106 27 129 1.0 1.0 0.00 0.00 0.00 83 1029.3
20211208135605 27 134 0.0 1.0 0.00 0.00 0.00 83 1029.2
20211208135105 27 135 0.0 1.0 0.00 0.00 0.00 83 1029.3
20211208134605 27 134 1.0 1.0 0.00 0.00 0.00 83 1029.3
20211208134106 27 132 0.0 1.0 0.00 0.00 0.00 82 1029.2
20211208133605 27 139 0.0 1.0 0.00 0.00 0.00 82 1029.3
20211208133105 27 139 0.0 0.0 0.00 0.00 0.00 82 1029.3
20211208132605 27 139 0.0 0.0 0.00 0.00 0.00 82 1029.3
20211208132105 28 139 0.0 0.0 0.00 0.00 0.00 82 1029.0
20211208131605 28 139 0.0 0.0 0.00 0.00 0.00 82 1029.2
20211208131105 28 139 0.0 1.0 0.00 0.00 0.00 82 1028.8
20211208130606 28 140 0.0 1.0 0.00 0.00 0.00 82 1029.0
20211208130105 28 140 0.0 1.0 0.00 0.00 0.00 82 1029.0
20211208125605 28 140 0.0 1.0 0.00 0.00 0.00 82 1029.0
20211208125106 28 140 0.0 1.0 0.00 0.00 0.00 82 1029.0
20211208124607 28 141 0.0 0.0 0.00 0.00 0.00 82 1029.3
20211208124105 28 141 0.0 1.0 0.00 0.00 0.00 82 1029.1
20211208123605 29 137 1.0 2.0 0.00 0.00 0.00 82 1029.2
20211208123105 29 131 1.0 1.0 0.00 0.00 0.00 83 1029.2
20211208122605 29 131 1.0 1.0 0.00 0.00 0.00 83 1029.3
20211208122105 29 131 1.0 2.0 0.00 0.00 0.00 83 1029.1
20211208121606 29 114 1.0 1.0 0.00 0.00 0.00 82 1029.5
20211208121105 29 109 0.0 1.0 0.00 0.00 0.00 82 1029.5
20211208120605 29 109 0.0 1.0 0.00 0.00 0.00 81 1029.5
20211208120105 29 109 1.0 1.0 0.00 0.00 0.00 81 1029.5
20211208115605 29 108 1.0 1.0 0.00 0.00 0.00 81 1029.7
20211208115106 29 71 1.0 1.0 0.00 0.00 0.00 80 1029.8
20211208114605 29 67 0.0 1.0 0.00 0.00 0.00 80 1029.6
20211208114105 30 67 0.0 0.0 0.00 0.00 0.00 80 1029.7
20211208113605 30 67 0.0 0.0 0.00 0.00 0.00 80 1029.7
20211208113105 30 67 0.0 1.0 0.00 0.00 0.00 80 1029.7
20211208112605 30 67 0.0 1.0 0.00 0.00 0.00 81 1029.7
20211208112105 31 68 1.0 1.0 0.00 0.00 0.00 81 1029.5
20211208111605 31 114 0.0 1.0 0.00 0.00 0.00 81 1029.8
20211208111105 31 114 0.0 0.0 0.00 0.00 0.00 81 1029.7
20211208110605 31 114 0.0 0.0 0.00 0.00 0.00 81 1029.8
20211208110105 31 114 0.0 1.0 0.00 0.00 0.00 81 1029.8
20211208105605 31 114 1.0 2.0 0.00 0.00 0.00 82 1029.7
20211208105105 31 117 0.0 1.0 0.00 0.00 0.00 82 1029.9
20211208104605 31 117 1.0 1.0 0.00 0.00 0.00 82 1030.0
20211208104106 30 145 1.0 1.0 0.00 0.00 0.00 82 1030.1
20211208103605 30 168 0.0 1.0 0.00 0.00 0.00 80 1030.2
20211208103105 30 169 0.0 0.0 0.00 0.00 0.00 80 1030.4
20211208102605 30 169 1.0 1.0 0.00 0.00 0.00 80 1030.4
20211208102105 30 173 1.0 1.0 0.00 0.00 0.00 80 1030.4
20211208101605 30 177 0.0 1.0 0.00 0.00 0.00 80 1030.3
20211208101105 30 177 1.0 1.0 0.00 0.00 0.00 80 1030.1
20211208100605 30 178 1.0 1.0 0.00 0.00 0.00 80 1030.4
20211208100105 30 178 1.0 1.0 0.00 0.00 0.00 80 1030.4
20211208095605 30 182 1.0 1.0 0.00 0.00 0.00 79 1030.4
20211208095104 30 188 0.0 1.0 0.00 0.00 0.00 79 1030.5
20211208094606 30 189 0.0 1.0 0.00 0.00 0.00 79 1030.7
20211208094104 30 189 1.0 1.0 0.00 0.00 0.00 79 1030.7
20211208093605 30 190 1.0 1.0 0.00 0.00 0.00 79 1030.7
20211208093105 30 190 0.0 1.0 0.00 0.00 0.00 78 1030.9
20211208092604 31 190 0.0 1.0 0.00 0.00 0.00 78 1030.9
20211208092105 31 191 0.0 1.0 0.00 0.00 0.00 78 1030.9
20211208091605 31 191 0.0 1.0 0.00 0.00 0.00 78 1030.9
20211208091104 31 163 1.0 1.0 0.00 0.00 0.00 78 1030.9
20211208090604 31 95 1.0 1.0 0.00 0.00 0.00 78 1031.0
20211208090105 32 60 1.0 1.0 0.00 0.00 0.00 78 1030.9
20211208085605 32 60 0.0 1.0 0.00 0.00 0.00 78 1030.9
20211208085105 32 60 0.0 1.0 0.00 0.00 0.00 78 1030.9
20211208084605 32 60 0.0 0.0 0.00 0.00 0.00 79 1031.0
20211208084104 33 60 0.0 0.0 0.00 0.00 0.00 79 1030.8
20211208083604 33 60 0.0 1.0 0.00 0.00 0.00 79 1030.9
20211208083105 33 59 1.0 2.0 0.00 0.00 0.00 79 1031.0
20211208082604 33 67 1.0 2.0 0.00 0.00 0.00 79 1031.1
20211208082105 33 66 1.0 2.0 0.00 0.00 0.00 78 1031.1
20211208081604 33 79 1.0 2.0 0.00 0.00 0.00 79 1031.2
20211208081104 33 63 1.0 2.0 0.00 0.00 0.00 79 1031.0
20211208080605 32 59 1.0 3.0 0.00 0.00 0.00 78 1031.1
20211208080105 32 60 1.0 2.0 0.00 0.00 0.00 76 1031.1
20211208075605 32 61 1.0 2.0 0.00 0.00 0.00 75 1031.1
20211208075105 32 55 1.0 2.0 0.00 0.00 0.00 74 1031.1
20211208074605 33 143 0.0 2.0 0.00 0.00 0.00 73 1031.2
20211208074104 33 153 0.0 0.0 0.00 0.00 0.00 73 1031.2
20211208073605 33 153 0.0 0.0 0.00 0.00 0.00 73 1031.2
20211208073105 33 153 0.0 1.0 0.00 0.00 0.00 73 1031.2
20211208072605 34 152 1.0 1.0 0.00 0.00 0.00 73 1031.2
20211208072105 34 149 1.0 2.0 0.00 0.00 0.00 73 1031.1
20211208071604 34 135 1.0 2.0 0.00 0.00 0.00 72 1031.2
20211208071105 35 129 1.0 1.0 0.00 0.00 0.00 73 1031.3
20211208070605 35 126 0.0 0.0 0.00 0.00 0.00 72 1031.2
20211208070105 35 126 0.0 1.0 0.00 0.00 0.00 72 1031.3
20211208065604 35 126 0.0 1.0 0.00 0.00 0.00 71 1031.5
20211208065104 35 126 0.0 1.0 0.00 0.00 0.00 71 1031.3
20211208064604 35 126 1.0 1.0 0.00 0.00 0.00 71 1031.4
20211208064105 36 126 1.0 1.0 0.00 0.00 0.00 70 1031.5
20211208063605 36 116 1.0 1.0 0.00 0.00 0.00 70 1031.7
20211208063104 36 115 1.0 1.0 0.00 0.00 0.00 70 1031.6
20211208062605 36 115 0.0 1.0 0.00 0.00 0.00 70 1031.6
20211208062104 37 100 1.0 2.0 0.00 0.00 0.00 69 1031.9
20211208061604 37 69 1.0 1.0 0.00 0.00 0.00 69 1031.8
20211208061104 37 69 0.0 1.0 0.00 0.00 0.00 69 1031.7
20211208060604 37 69 1.0 2.0 0.00 0.00 0.00 69 1031.9
20211208060105 38 69 1.0 2.0 0.00 0.00 0.00 69 1031.9
20211208055604 38 54 1.0 3.0 0.00 0.00 0.00 69 1031.8
20211208055104 38 48 2.0 3.0 0.00 0.00 0.00 69 1031.7
20211208054604 38 34 2.0 3.0 0.00 0.00 0.00 69 1031.7
20211208054104 37 55 1.0 3.0 0.00 0.00 0.00 69 1031.8
20211208053604 37 76 1.0 1.0 0.00 0.00 0.00 68 1031.8
20211208053104 37 81 1.0 2.0 0.00 0.00 0.00 67 1031.8
20211208052604 37 100 1.0 1.0 0.00 0.00 0.00 67 1031.8
20211208052104 37 101 0.0 1.0 0.00 0.00 0.00 66 1031.9
20211208051604 37 101 1.0 1.0 0.00 0.00 0.00 66 1031.6
20211208051104 37 105 0.0 1.0 0.00 0.00 0.00 65 1031.7
20211208050604 38 112 1.0 1.0 0.00 0.00 0.00 65 1031.7
20211208050104 38 144 0.0 1.0 0.00 0.00 0.00 65 1031.6
20211208045614 38 144 1.0 2.0 0.00 0.00 0.00 64 1031.7
20211208045116 39 143 1.0 2.0 0.00 0.00 0.00 64 1031.6
20211208044604 39 58 0.0 2.0 0.00 0.00 0.00 64 1031.6
20211208043604 39 71 1.0 1.0 0.00 0.00 0.00 63 1031.5
20211208043104 39 73 0.0 1.0 0.00 0.00 0.00 63 1031.7
20211208042604 39 74 1.0 2.0 0.00 0.00 0.00 63 1031.8
20211208042104 40 23 1.0 2.0 0.00 0.00 0.00 62 1031.7
20211208041604 40 0 2.0 3.0 0.00 0.00 0.00 62 1031.5